www.pogodaiklimat.ru

Погода и климат >> Архив погоды >> Финляндия >> Маяк Marjaniemi


ПОГОДА на Маяке Marjaniemi

  • Прогноз погоды на Маяке Marjaniemi
  • Монитор погоды на Маяке Marjaniemi

АРХИВ ПОГОДЫ на Маяке Marjaniemi

Время (UTC), дата Ветер
(напр.,м/с)
 
Видим.   Явления Облачность Т
(С)
Тd
(С)
f
(%)
Тe
(С)
Тes
(С)
Комфортность P
(гПа)
Po
(гПа)
Тmin
(С)
Tmax
(С)
R
(мм)
R24
(мм)
S
(см)
01 10.09 ЮВ 4-5
{5}
30 км 1/1
[]
+11.6 +11.2 97 +9 +9 1023.2 1022.1
02 10.09 ЮВ 4-5
{6}
30 км ясно +11.6 +11.2 97 +9 +9 1023.0 1021.9
03 10.09 ЮВ 4-5
{5}
28 км 9/9 300 м
[]
+11.9 +11.5 97 +10 +10 1023.0 1021.9
04 10.09 ЮВ 3 35 км 10/10 300 м
[]
+12.4 +11.8 96 +11 +11 1022.8 1021.7
05 10.09 ЮВ 3-5
{6}
35 км 10/10 300 м
[]
+13.1 +12.4 96 +12 +12 1022.5 1021.4
06 10.09 ЮВ 4-7
{7}
35 км 9/9 300 м
[]
+13.5 +12.6 94 +12 +12 1022.2 1021.1 +11.5 +13.9
07 10.09 ЮВ 4 45 км 10/10 300 м
[]
+14.1 +12.9 92 +13 +13 1022.0 1021.0
08 10.09 ЮВ 4 50 км 9/9 300 м
[]
+14.7 +12.8 88 +13 +14 1022.1 1021.0
09 10.09 ЮВ 4-7
{8}
45 км 10/10 300 м
[]
+15.4 +13.0 86 +14 +14 1021.7 1020.6
10 10.09 ЮВ 5-5
{8}
50 км 10/10 300 м
[]
+15.4 +13.1 86 +14 +14 1021.6 1020.5
11 10.09 ЮВ 5 45 км 10/10 600 м
[]
+15.5 +12.9 84 +14 +14 1021.4 1020.4
12 10.09 ЮВ 4-7
{8}
40 км 9/9 300 м
[]
+16.3 +13.5 83 +16 +16 1021.3 1020.2
13 10.09 ЮВ 4 45 км 9/9 300 м
[]
+16.2 +13.8 86 +15 +16 1021.2 1020.2
14 10.09 ЮВ 4-6
{7}
45 км 10/0 600 м
[]
+16.1 +13.8 86 +15 +15 1020.7 1019.6
15 10.09 ЮВ 3-5
{6}
45 км 10/0 1000 м
[]
+16.3 +13.9 86 +16 +16 1020.3 1019.2
16 10.09 ЮВ 3 40 км 9/9 1000 м
[]
+16.0 +13.8 87 +16 +16 1019.9 1018.9
17 10.09 ЮВ 3 45 км 9/9 1000 м
[]
+15.5 +13.8 90 +15 +15 1019.8 1018.8
18 10.09 ЮВ 3-5
{5}
30 км ясно +14.2 +13.4 95 +13 +13 1019.6 1018.6 +13.5 +16.6
19 10.09 ЮВ 4 28 км ясно +13.6 +13.0 96 +12 +12 1019.4 1018.3
20 10.09 ЮВ 5-8
{8}
18 км ясно +13.2 +12.8 97 +11 +11 1019.2 1018.2
21 10.09 ЮВ 7-8
{8}
13 км ясно +12.8 +12.5 98 +10 +10 1018.6 1017.5
22 10.09 ЮВ 6-7
{8}
14 км 6/0 300 м
[]
+12.8 +12.5 98 +10 +10 1018.2 1017.1
23 10.09 ЮВ 5 15 км 9/9 200 м
[]
+14.1 +13.7 97 +12 +12 1017.7 1016.7
00 11.09 ЮВ 3-5
{7}
12 км 9/6 600 м
[]
+14.5 +14.0 97 +13 +13 1017.0 1016.0
01 11.09 ЮВ 4 10 км 6/6 600 м
[]
+14.2 +13.7 97 +13 +13 1016.6 1015.5
02 11.09 ЮВ 6 5000 м дымка 1/1 <50 м
[]
+14.2 +14.0 99 +12 +12 1016.0 1015.0
03 11.09 ЮВ 5-8
{9}
4200 м дымка ясно +14.0 +13.9 99 +12 +12 1015.4 1014.3
04 11.09 ЮВ 6 3900 м дымка 4/4 <50 м
[]
+14.0 +13.9 99 +12 +12 1015.0 1013.9
05 11.09 ЮВ 5 2600 м дымка 9/9 <50 м
[]
+14.0 +13.9 99 +12 +12 1014.5 1013.5
06 11.09 ЮВ 6-10
{10}
8000 м дымка 9/9 50 м
[]
+14.3 +14.0 98 +12 +12 1013.8 1012.8 +12.7 +14.6
07 11.09 ЮВ 5-8
{11}
14 км 1/0 100 м
[]
+15.2 +14.1 93 +14 +14 1013.5 1012.4
08 11.09 ЮВ 6 20 км 6/6
[]
+16.6 +14.5 87 +15 +16 1013.0 1012.0
09 11.09 ЮВ 5-9
{10}
27 км 4/0
[]
+18.5 +14.7 79 +19 +21 1012.3 1011.3
10 11.09 ЮВ 6 35 км 4/1
[]
+20.0 +14.0 68 +22 +23 комфорт 1011.5 1010.5
11 11.09 ЮВ 7 30 км ясно +20.7 +13.2 62 +23 +24 комфорт 1010.9 1009.9
12 11.09 ЮВ 6-9
{10}
35 км 1/0 1000 м
[]
+20.9 +13.1 61 +23 +25 комфорт 1010.1 1009.1
13 11.09 Ю 6-9
{9}
40 км 1/0 2000 м
[]
+20.5 +13.2 63 +23 +23 комфорт 1009.5 1008.4
14 11.09 Ю 7 45 км 6/1 1000 м
[]
+18.2 +13.0 72 +18 +18 1009.0 1008.0
15 11.09 Ю 8-10
{12}
45 км 6/4 1500 м
[]
+17.4 +13.0 75 +16 +16 1008.4 1007.4
16 11.09 Ю 6 50 км 6/1 1000 м
[]
+16.7 +13.0 79 +16 +16 1007.9 1006.9
17 11.09 Ю 9-9
{13}
50 км 9/4 600 м
[]
+15.4 +13.5 88 +13 +13 1007.7 1006.7
18 11.09 ЮВ 8-10
{12}
50 км в посл. час дождь {ливн. осадки} 9/9 1000 м
[]
+14.9 +13.2 90 +13 +13 1007.3 1006.2 +14.3 +21.6
19 11.09 ЮВ 8-11
{11}
50 км 10/4 1000 м
[]
+14.7 +13.0 90 +12 +12 1006.7 1005.6
20 11.09 ЮВ 7-10
{10}
50 км 9/9 1000 м
[]
+14.6 +12.7 88 +12 +12 1006.2 1005.1
21 11.09 ЮВ 7-10
{12}
50 км 9/9 1000 м
[]
+14.5 +12.1 86 +12 +12 1005.5 1004.5
22 11.09 ЮВ 5 50 км 9/9 600 м
[]
+14.1 +12.3 89 +12 +12 1005.2 1004.2
23 11.09 ЮВ 5-9
{9}
50 км 9/6 600 м
[]
+13.9 +12.1 89 +12 +12 1004.6 1003.5
00 12.09 ЮВ 6-10
{10}
50 км 9/1 300 м
[]
+13.7 +12.3 91 +11 +11 1004.1 1003.0
01 12.09 Ю 7-9
{10}
50 км 9/9 300 м
[]
+13.9 +12.9 94 +11 +11 1004.1 1003.0
02 12.09 Ю 7-9
{9}
40 км 9/9 100 м
[]
+14.3 +13.4 94 +12 +12 1003.8 1002.8
03 12.09 Ю 10-12
{12}
30 км в посл. час морось {ливн. осадки, дождь} 9/9 100 м
[]
+14.2 +13.7 97 +11 +11 1003.5 1002.4
04 12.09 Ю 11 9000 м ливневой дождь 9/9 200 м
[]
+14.3 +13.8 97 +11 +11 1003.1 1002.1
05 12.09 Ю 13-15
{16}
30 км 9/6 300 м
[]
+14.6 +13.1 91 +11 +11 1003.2 1002.2
06 12.09 Ю 11-14
{15}
40 км {ливн. осадки, дождь} 9/6 300 м
[]
+14.7 +12.9 89 +12 +12 1002.9 1001.9 +13.6 +14.9
07 12.09 Ю 11 20 км слаб. морось 9/4 600 м
[]
+14.4 +12.7 90 +11 +11 1002.8 1001.7
08 12.09 Ю 10 14 км слаб. морось 9/9 300 м
[]
+13.7 +12.6 93 +11 +11 1002.2 1001.2
09 12.09 Ю 11-14
{16}
6000 м в посл. час дождь {ливн. осадки} 9/9 300 м
[]
+13.7 +12.9 95 +10 +10 1001.6 1000.6
10 12.09 Ю 10-13
{13}
21 км 9/9 200 м
[]
+13.9 +13.2 96 +11 +11 1001.3 1000.3
11 12.09 Ю 12 30 км 9/9 300 м
[]
+14.3 +13.4 94 +11 +11 1001.1 1000.0
12 12.09 Ю 12-14
{15}
45 км {ливн. осадки, дождь} 9/9 200 м
[]
+14.5 +13.2 92 +11 +11 1001.0 999.9
13 12.09 ЮЗ 11 35 км 6/1 300 м
[]
+14.8 +12.9 88 +12 +12 1000.9 999.8
14 12.09 ЮЗ 10-12
{12}
45 км 1/0
[]
+14.5 +12.7 89 +12 +12 1001.0 1000.0
15 12.09 ЮЗ 10-11
{12}
40 км 6/6
[]
+14.9 +12.8 87 +12 +12 1001.4 1000.4
16 12.09 ЮЗ 10 50 км ясно +14.6 +12.5 87 +12 +12 1001.4 1000.4
17 12.09 ЮЗ 10-11
{12}
50 км 4/0 1500 м
[]
+14.5 +12.2 86 +12 +12 1001.5 1000.4
18 12.09 ЮЗ 9 50 км 1/1 1500 м
[]
+14.4 +11.7 84 +12 +12 1001.8 1000.7 +13.6 +15.0
19 12.09 ЮЗ 9 45 км ясно +14.5 +11.7 83 +12 +12 1001.8 1000.8
20 12.09 ЮЗ 9 50 км 9/9 2000 м
[]
+14.6 +11.5 82 +12 +12 1001.7 1000.7
21 12.09 ЮЗ 10-12
{12}
50 км 4/0 2000 м
[]
+14.5 +10.5 77 +12 +12 1001.8 1000.8
22 12.09 ЮЗ 8 50 км 6/6 2000 м
[]
+14.2 +11.1 82 +12 +12 1001.7 1000.7
23 12.09 З 10 50 км 4/0
[]
+14.0 +10.2 78 +11 +11 1001.3 1000.3
00 13.09 ЮЗ 8-10
{11}
50 км 1/0
[]
+13.6 +10.5 82 +11 +11 1001.2 1000.1
01 13.09 ЮЗ 9 50 км 1/0
[]
+13.4 +9.8 79 +10 +10 1001.1 1000.1
02 13.09 ЮЗ 10-10
{12}
50 км 9/6 1500 м
[]
+13.3 +9.5 78 +10 +10 1001.0 999.9
03 13.09 ЮЗ 8-10
{11}
50 км в посл. час дождь {ливн. осадки} 9/9 1500 м
[]
+12.8 +9.0 78 +10 +10 1000.8 999.7
04 13.09 ЮЗ 8 50 км 9/1 600 м
[]
+12.5 +8.5 77 +9 +9 1000.6 999.5
05 13.09 З 8 50 км 4/4 600 м
[]
+12.2 +8.4 78 +9 +9 1000.5 999.4
06 13.09 З 9-10
{10}
45 км {ливн. осадки, дождь} 1/1 600 м
[]
+12.1 +7.7 74 +9 +9 1000.8 999.7 +11.9 +14.8
07 13.09 З 9-10
{11}
45 км ясно +12.1 +7.1 71 +9 +9 1001.0 1000.0
08 13.09 З 9-9
{10}
40 км 1/1 600 м
[]
+12.2 +7.7 74 +9 +9 1001.3 1000.3
09 13.09 З 7-8
{10}
35 км 1/0 600 м
[]
+12.4 +7.3 71 +10 +11 1001.6 1000.5
10 13.09 З 7-9
{9}
35 км 1/0 600 м
[]
+12.3 +7.5 72 +9 +11 1001.7 1000.6
11 13.09 ЮЗ 7 35 км 4/4 600 м
[]
+12.5 +7.2 70 +10 +10 1001.8 1000.7
12 13.09 З 8-9
{10}
45 км 6/6 600 м
[]
+12.2 +6.1 66 +9 +9 1002.0 1000.9
13 13.09 ЮЗ 9 40 км 9/6 600 м
[]
+12.1 +6.7 70 +9 +9 1002.1 1001.1
14 13.09 ЮЗ 8 50 км 9/9 600 м
[]
+11.3 +6.1 70 +8 +8 1002.0 1000.9
15 13.09 СЗ 10-11
{12}
50 км 4/4 600 м
[]
+10.9 +7.8 81 +7 +7 1001.9 1000.9
16 13.09 СЗ 9 50 км 9/6 300 м
[]
+10.7 +6.6 76 +7 +7 1002.1 1001.0
17 13.09 СЗ 8 35 км 9/6 300 м
[]
+10.4 +7.4 82 +7 +7 1002.2 1001.2
18 13.09 СЗ 11-13
{14}
50 км {ливн. осадки, дождь} 9/4 600 м
[]
+11.3 +7.9 80 +7 +7 1003.1 1002.1 +10.1 +13.0
19 13.09 СЗ 11-13
{13}
50 км 9/6 600 м
[]
+11.7 +7.5 75 +8 +8 1003.5 1002.5
20 13.09 СЗ 9-11
{14}
50 км в посл. час дождь 9/6 1000 м
[]
+11.7 +7.1 73 +8 +8 1003.7 1002.6
21 13.09 СЗ 11-12
{12}
50 км {ливн. осадки, дождь} 9/6 1000 м
[]
+11.5 +7.5 76 +8 +8 1004.1 1003.0
22 13.09 СЗ 10 50 км 1/1 600 м
[]
+11.2 +6.9 75 +7 +7 1004.3 1003.3
23 13.09 СЗ 9 50 км 6/6 600 м
[]
+10.9 +7.2 78 +7 +7 1004.8 1003.7
00 14.09 С 10-11
{12}
50 км {ливн. осадки, дождь} 6/1 300 м
[]
+10.6 +7.7 82 +6 +6 1005.4 1004.4
01 14.09 С 10 50 км 4/4
[]
+10.2 +6.9 80 +6 +6 1005.8 1004.7
02 14.09 С 9 50 км 9/4 300 м
[]
+10.4 +6.7 78 +6 +6 1006.3 1005.3
03 14.09 С 9-10
{10}
50 км 9/1 1500 м
[]
+10.1 +6.5 78 +6 +6 1006.9 1005.8
04 14.09 С 9 50 км 9/1 1000 м
[]
+10.1 +6.5 78 +6 +6 1007.2 1006.1
05 14.09 С 8-9
{9}
45 км 9/0
[]
+10.2 +5.4 72 +6 +6 1007.7 1006.6
06 14.09 С 7-8
{10}
50 км 9/1
[]
+10.0 +6.2 77 +6 +6 1008.3 1007.3 +9.9 +11.8
07 14.09 С 6-7
{8}
40 км 6/0
[]
+10.2 +4.8 69 +7 +7 1008.7 1007.7
08 14.09 С 5-6
{7}
45 км 9/1 300 м
[]
+10.2 +5.6 73 +7 +8 1009.2 1008.1
09 14.09 С 4-5
{6}
40 км 9/0
[]
+10.7 +6.5 75 +8 +10 1009.5 1008.5
10 14.09 СЗ 4 50 км 6/6
[]
+10.5 +6.3 75 +8 +9 1009.9 1008.8
11 14.09 З 4 40 км 1/0
[]
+10.8 +5.3 69 +9 +11 1010.2 1009.1
12 14.09 З 4-5
{5}
45 км ясно +11.4 +5.3 66 +9 +12 1010.5 1009.4
13 14.09 З 4-5
{6}
50 км ясно +11.8 +5.1 63 +10 +12 1010.7 1009.6
14 14.09 З 4 40 км ясно +11.7 +5.3 65 +10 +11 1010.7 1009.6
15 14.09 ЮЗ 5-6
{6}
50 км 1/0 600 м
[]
+11.3 +5.2 66 +9 +9 1010.4 1009.3
16 14.09 ЮЗ 4 50 км 1/1 600 м
[]
+10.8 +4.6 66 +9 +9 1010.1 1009.0
17 14.09 ЮЗ 4-6
{6}
50 км ясно +10.3 +4.8 69 +8 +8 1009.7 1008.6
18 14.09 ЮЗ 4-7
{7}
50 км ясно +10.4 +5.2 70 +8 +8 1009.1 1008.0 +10.0 +12.0
19 14.09 ЮЗ 5 50 км 1/1 600 м
[]
+10.6 +6.0 73 +8 +8 1009.0 1008.0
20 14.09 ЮЗ 4-4
{6}
50 км 1/0 600 м
[]
+10.6 +5.2 69 +8 +8 1008.1 1007.1
21 14.09 ЮВ 6-8
{8}
50 км 6/6 600 м
[]
+7.6 +6.2 91 +3 +3 1007.5 1006.4
22 14.09 ЮВ 6 50 км ясно +7.9 +6.6 91 +4 +4 1006.9 1005.8
23 14.09 ЮВ 6 50 км 6/4 1000 м
[]
+8.0 +6.6 91 +4 +4 1006.0 1004.9
00 15.09 Ю 5-7
{11}
50 км в посл. час морось {ливн. осадки} 9/9 600 м
[]
+8.8 +6.8 87 +5 +5 1005.2 1004.2
01 15.09 ЮВ 6-9
{9}
50 км 1/0
[]
+7.1 +6.3 95 +2 +2 1004.4 1003.3
02 15.09 ЮВ 7 50 км 9/1 1500 м
[]
+7.7 +5.5 86 +3 +3 1003.0 1001.9
03 15.09 ЮВ 7-9
{9}
50 км 9/0
[]
+7.0 +5.0 87 +2 +2 1001.6 1000.5
04 15.09 ЮВ 6-8
{9}
50 км 9/0
[]
+6.6 +4.6 87 +2 +2 1000.4 999.3
05 15.09 ЮВ 5-7
{8}
50 км 9/9
[]
+6.3 +4.5 88 +2 +2 999.0 997.9
06 15.09 ЮВ 4-7
{8}
50 км {метель} 9/1 1000 м
[]
+6.3 +4.4 88 +2 +3 997.7 996.7 +5.8 +10.9
07 15.09 ЮВ 5-9
{9}
50 км 6/4 1000 м
[]
+7.4 +4.0 79 +4 +4 996.8 995.7
08 15.09 ЮВ 6 50 км 9/6 1000 м
[]
+7.6 +4.2 79 +3 +4 995.7 994.6
09 15.09 ЮВ 4-8
{9}
50 км 9/1 1500 м
[]
+8.3 +5.2 81 +5 +6 994.2 993.2
10 15.09 ЮВ 5 45 км 1/1 2000 м
[]
+9.6 +4.8 72 +7 +9 993.4 992.3
11 15.09 ЮВ 5 50 км 9/9
[]
+10.7 +4.5 65 +8 +8 992.2 991.2
12 15.09 В 4-8
{8}
40 км слаб. ливневой дождь 9/9 600 м
[]
+10.0 +4.9 71 +7 +8 991.3 990.2
13 15.09 В 3-7
{12}
35 км слаб. ливневой дождь 9/9 600 м
[]
+9.7 +5.1 73 +8 +8 990.5 989.5
14 15.09 В 3-11
{11}
35 км слаб. дождь 9/9 600 м
[]
+9.1 +6.1 81 +7 +7 989.9 988.8
15 15.09 В 4-6
{10}
45 км слаб. ливневой дождь 9/6 1000 м
[]
+9.0 +5.2 77 +6 +6 989.3 988.3
16 15.09 В 4 40 км слаб. ливневой дождь 9/9 1000 м
[]
+9.4 +4.6 72 +7 +7 989.1 988.0
17 15.09 В 5-9
{11}
28 км слаб. ливневой дождь 10/10 600 м
[]
+8.9 +4.9 76 +6 +6 988.8 987.8
18 15.09 СВ 5-10
{10}
45 км слаб. ливневой дождь 10/10 600 м
[]
+8.5 +5.1 79 +5 +5 988.8 987.7 +6.3 +10.8
19 15.09 СВ 6 30 км слаб. ливневой дождь 10/10 600 м
[]
+8.4 +5.1 80 +4 +4 988.8 987.8
20 15.09 СВ 6 50 км в посл. час морось 10/4 1500 м
[]
+8.8 +4.3 73 +5 +5 988.8 987.7
21 15.09 СВ 8-12
{12}
50 км {ливн. осадки} 10/10
[]
+8.9 +3.9 71 +5 +5 989.0 987.9
22 15.09 СВ 9-12
{13}
45 км 10/4 1500 м
[]
+8.6 +3.7 71 +4 +4 989.4 988.3
23 15.09 СВ 8 50 км слаб. ливневой дождь 10/1 1500 м
[]
+8.3 +3.3 71 +4 +4 989.8 988.7
00 16.09 СВ 8-13
{14}
50 км {ливн. осадки, дождь} 9/0 1000 м
[]
+8.2 +2.9 69 +4 +4 990.1 989.1
01 16.09 СВ 9-13
{14}
50 км 10/1 1500 м
[]
+7.7 +2.9 72 +3 +3 990.7 989.6
02 16.09 СВ 8 50 км 9/9
[]
+7.6 +3.3 74 +3 +3 991.2 990.2
03 16.09 СВ 9-12
{13}
50 км 10/0
[]
+7.3 +3.5 77 +2 +2 991.9 990.8
04 16.09 СВ 9 50 км 9/9
[]
+6.9 +3.6 79 +2 +2 992.4 991.4
05 16.09 СВ 7 50 км 6/4 300 м
[]
+6.3 +3.9 85 +1 +1 992.7 991.6
06 16.09 С 10-12
{13}
50 км 6/6 300 м
[]
+6.7 +4.0 83 +1 +1 993.0 991.9 +6.3 +9.0
07 16.09 С 11 50 км 9/9 200 м
[]
+5.7 +4.1 89 -1 -1 993.4 992.3
08 16.09 С 8-9
{12}
50 км 10/10 200 м
[]
+5.2 +3.6 89 -1 -1 993.7 992.6
09 16.09 С 7-9
{10}
50 км 10/10 300 м
[]
+5.8 +3.5 85 +1 +1 994.1 993.1
10 16.09 С 8-11
{11}
50 км 9/9 300 м
[]
+6.9 +4.5 85 +2 +2 994.4 993.3
11 16.09 С 8 50 км 9/9 300 м
[]
+7.2 +4.5 83 +2 +2 994.9 993.9
12 16.09 С 9-11
{11}
50 км 10/10 300 м
[]
+8.0 +4.6 79 +3 +3 995.1 994.1
13 16.09 С 8 50 км 9/9 300 м
[]
+8.5 +4.7 77 +4 +4 995.2 994.2
14 16.09 С 8 50 км 9/9 600 м
[]
+8.9 +4.4 73 +5 +5 995.4 994.3
15 16.09 С 8-9
{10}
50 км 10/10 600 м
[]
+9.0 +5.2 77 +5 +5 995.5 994.4
16 16.09 С 8 50 км 9/9 300 м
[]
+8.8 +6.0 83 +4 +4 995.6 994.5
17 16.09 С 8 40 км 9/9 300 м
[]
+8.6 +6.1 84 +4 +4 995.7 994.6
18 16.09 СВ 6-7
{9}
35 км {ливн. осадки, дождь} 9/9 300 м
[]
+8.5 +5.9 84 +5 +5 995.7 994.7 +5.0 +9.3
19 16.09 С 6-8
{8}
22 км 9/9 300 м
[]
+8.5 +6.8 89 +4 +4 995.7 994.6
20 16.09 СВ 6-6
{8}
40 км в посл. час дождь 10/10 300 м
[]
+8.4 +7.1 92 +4 +4 995.7 994.7
21 16.09 СВ 5-7
{8}
35 км слаб. ливневой дождь 9/9 300 м
[]
+8.5 +7.0 90 +5 +5 995.7 994.6
22 16.09 СВ 5 50 км в посл. час морось 9/9 300 м
[]
+8.7 +6.5 86 +5 +5 995.8 994.7
23 16.09 СВ 5-7
{7}
50 км в посл. час морось 9/9 300 м
[]
+8.8 +6.6 86 +5 +5 995.7 994.7
00 17.09 СВ 4-5
{7}
50 км {ливн. осадки, дождь} 9/9 1000 м
[]
+8.8 +6.1 83 +6 +6 995.8 994.8
01 17.09 СВ 4-6
{6}
50 км 9/9 600 м
[]
+8.7 +6.2 84 +6 +6 995.9 994.8

 

Местоположение метеостанции Маяк Marjaniemi (Финляндия): широта 65.04 долгота 24.56 высота над уровнем моря 7 м.

В архиве по умолчанию представлена погода на Маяке Marjaniemi за последнюю неделю. Архивные данные за месяц целиком и за предыдущие месяцы, начиная с января 2011 года, Вы можете получить, выбрав интересующий диапазон дат из раскрывающегося списка и нажав кнопку "Ввод!".


*Определитесь, кто Вы:
робот инопланетянин человек

Внимание! Время в таблицах - всемирное. Для получения местного времени необходимо прибавить поправку, которая равна 1 ч.

Смотрите также архив погоды в соседних городах и на ближайших метеорологических станциях:

Погода в Хайлуото (Финляндия) (8 км)
Погода на Гуфускаларе (Исландия) (33 км)
Погода в Оулу (Финляндия) (39 км)
Погода в Оулунсало Пеллонпаа (Финляндия) (40 км)
Погода в Раахе Лапалуто (Финляндия) (42 км)
Погода в Кеми (Финляндия) (44 км)
Погода в Ревонлахти (Финляндия) (47 км)
Погода на Маяке Nahkiainen (Финляндия) (56 км)
Погода в Кеми Айос (Финляндия) (70 км)
Погода в Кеми аэропорту (Финляндия) (82 км)

Пояснения к столбцам:

Ветер - указаны скорость ветра в м/с - средняя за 10 мин, порывы в срок и между сроками (в фигурных скобках) и направление, откуда дует ветер: С - северный, СВ - северо-восточный, В - восточный, ЮВ - юго-восточный, Ю - южный, ЮЗ - юго-западный, З - западный, СЗ - северо-западный.
Видимость - горизонтальная дальность видимости в метрах или километрах. При видимости от 1 до 10 км при отсутствии осадков обычно наблюдается дымка, при ухудшении видимости до 1 км и менее - туман. В сухую погоду видимость может ухудшаться дымом, пылью или мглою.
Явления - указаны атмосферные явления, наблюдавшиеся в срок или в последний час перед сроком; фигурными скобками обозначены явления, наблюдавшиеся между сроками (за 1-3 часа до срока); квадратными скобками обозначены град или гололедные отложения с указанием их диаметра в мм.
Облачность - указаны через наклонную черту общая и нижняя облачность в баллах и высота нижней границы облаков в метрах; квадратными скобками обозначены формы облаков: Ci - перистые, Cs - перисто-слоистые, Cc - перисто-кучевые, Ac - высококучевые, As - высокослоистые, Sc - слоисто-кучевые, Ns - слоисто-дождевые, Cu - кучевые, Cb - кучево-дождевые. Подробнее классификацию облаков см. в Атласе облаков (PDF).
T - Температура воздуха - температура, измеренная на высоте 2 м над землей.
Td - Температура точки росы - температура, при понижении до которой содержащийся в воздухе водяной пар достигнет насыщения.
f - Относительная влажность воздуха - влажноcть воздуха, измеренная на высоте 2 м над землей.
Te - Эффективная температура - температура, которую ощущает одетый по сезону человек в тени. Характеристика душности погоды. При расчете учитывается влияние влажности воздуха и скорости ветра на теплоощущения человека.
Tes - Эффективная температура на солнце - температура, которую ощущает человек, с поправкой на солнечный нагрев. Характеристика знойности погоды. Зависит от высоты солнца над горизонтом, облачности и скорости ветра. Ночью, в пасмурную погоду, а также при ветре 12 м/с и более поправка равна нулю.
P - Атмосферное давление - приведенное к уровню моря атмосферное давление.
Po - Атмосферное давление - измеренное на уровне метеостанции атмосферное давление.
Tmin - Минимальная температура - минимум температуры воздуха на высоте 2 м над землей.
Tmax - Максимальная температура - максимум температуры воздуха на высоте 2 м над землей.
R - Количество осадков - Количество выпавших осадков за период времени, мм. При наведении курсора мыши на число - период времени, за который выпало указанное количество осадков.
R24 - Количество осадков - Количество выпавших осадков за 24 часа, мм.
S - Снежный покров - Высота снежного покрова, см. При наведении курсора мыши на число - состояние снежного покрова и степень покрытия местности в баллах.